This demonstration page uses our WeatherBlox Daily Observations layout. Learn more.

Hourly Observations for July 4, 2015

Temp ( °F °C ) Dew Point ( °F °C ) Humidity (%) Winds ( mph kmh ) Pressure ( in mb ) Visibility ( mi km ) Precip ( " mm )
12:15 am 00:15 Clear 64 17.5 60 15.5 88 88 SE 6 9 29.97 1015 7 11.26538 0 0
12:35 am 00:35 Clear 64 17.5 60 15.5 88 88 SSE 6 9 29.97 1015 7 11.26538 0 0
12:55 am 00:55 Clear 62 16.8 59 15.1 90 90 SSE 7 11 29.97 1015 7 11.26538 0 0
1:15 am 01:15 Clear 62 16.8 59 15.1 90 90 SE 6 9 29.97 1015 7 11.26538 0 0
1:35 am 01:35 Clear 62 16.5 59 15 91 91 SE 3 6 29.97 1015 7 11.26538 0 0
1:55 am 01:55 Clear 62 16.6 59 15.1 91 91 SSE 5 7 29.97 1015 7 11.26538 0 0
2:15 am 02:15 Clear 62 16.5 59 15.1 92 92 SSE 5 7 29.97 1015 7 11.26538 0 0
2:35 am 02:35 Clear 61 16.2 58 14.7 91 91 SSE 5 7 30 1016 7 11.26538 0 0
2:55 am 02:55 Clear 61 16 58 14.6 91 91 SSE 3 6 30 1016 7 11.26538 0 0
3:15 am 03:15 Clear 61 16 58 14.5 91 91 Calm 30 1016 7 11.26538 0 0
3:35 am 03:35 Clear 61 16 58 14.7 92 92 SSE 6 9 29.94 1014 7 11.26538 0 0
3:55 am 03:55 Clear 60 15.8 58 14.3 91 91 Calm 29.94 1014 7 11.26538 0 0
4:15 am 04:15 Clear 60 15.8 58 14.4 91 91 SSE 3 6 29.94 1014 7 11.26538 0 0
4:35 am 04:35 Clear 60 15.6 58 14.5 93 93 Calm 29.94 1014 7 11.26538 0 0
4:55 am 04:55 Clear 60 15.5 58 14.4 93 93 Calm 29.94 1014 7 11.26538 0 0
5:15 am 05:15 Clear with Mist and Fog 59 15 57 13.7 92 92 SSE 3 6 29.97 1015 5 8.0467 0 0
5:35 am 05:35 Clear with Mist and Fog 58 14.7 56 13.6 93 93 SSE 5 7 29.97 1015 5 8.0467 0 0
5:55 am 05:55 Clear with Mist and Fog 59 14.8 57 13.8 94 94 SSE 5 7 29.97 1015 5 8.0467 0 0
6:15 am 06:15 Sunny with Mist and Fog 59 14.9 57 14 94 94 SSE 3 6 29.97 1015 4 6.43736 0 0
6:35 am 06:35 Sunny with Mist and Fog 58 14.7 57 13.8 94 94 Calm 29.97 1015 3 4.82802 0 0
6:55 am 06:55 Sunny with Mist and Fog 59 15.1 57 14.1 94 94 Calm 30 1016 3 4.82802 0 0
7:15 am 07:15 Sunny with Mist and Fog 60 15.8 58 14.7 93 93 SSE 5 7 29.94 1014 4 6.43736 0 0
7:35 am 07:35 Sunny with Mist and Fog 62 16.5 60 15.3 93 93 SSE 5 7 29.94 1014 4 6.43736 0 0
7:55 am 07:55 Sunny with Mist and Fog 64 17.5 61 16.2 92 92 SSE 5 7 29.94 1014 5 8.0467 0 0
8:15 am 08:15 Sunny 65 18.3 62 16.7 90 90 SSE 7 11 29.94 1014 7 11.26538 0 0
8:35 am 08:35 Partly Cloudy 66 19.1 63 17.1 88 88 S 9 15 29.94 1014 7 11.26538 0 0
8:55 am 08:55 Partly Cloudy 66 19 62 16.9 88 88 S 10 17 29.94 1014 7 11.26538 0 0
9:15 am 09:15 Sunny 68 20 63 17.4 85 85 S 13 20 29.91 1013 7 11.26538 0 0
9:35 am 09:35 Sunny 69 20.8 63 17.4 81 81 S 9 15 29.91 1013 10 16.0934 0 0
9:55 am 09:55 Sunny 71 21.7 64 17.8 79 79 S 10 17 29.91 1013 10 16.0934 0 0
10:15 am 10:15 Sunny 73 23 64 17.8 73 73 S 12 19 29.91 1013 10 16.0934 0 0
10:35 am 10:35 Sunny 75 23.7 64 17.9 70 70 S 10 17 29.85 1011 10 16.0934 0 0
10:55 am 10:55 Sunny 76 24.3 64 17.6 66 66 S 13 20 29.88 1012 10 16.0934 0 0
11:15 am 11:15 Sunny 76 24.4 63 17.1 64 64 S 12 19 29.85 1011 10 16.0934 0 0
11:35 am 11:35 Sunny 77 24.8 63 17.3 63 63 SSE 12 19 29.85 1011 10 16.0934 0 0
11:55 am 11:55 Sunny 78 25.5 64 17.5 61 61 S 15 24 29.85 1011 10 16.0934 0 0
12:15 pm 12:15 Sunny 79 26.3 63 17.3 58 58 S 13 20 29.85 1011 10 16.0934 0 0
12:35 pm 12:35 Sunny 80 26.7 64 17.6 57 57 SSE 16 26 29.83 1010 10 16.0934 0 0
12:55 pm 12:55 Sunny 81 27.2 64 17.7 56 56 SSE 16 26 29.83 1010 10 16.0934 0 0
1:15 pm 13:15 Partly Cloudy 81 27.3 63 17.2 54 54 S 16 26 29.83 1010 10 16.0934 0 0
1:35 pm 13:35 Partly Cloudy 82 27.8 62 16.9 52 52 SSE 16 26 29.83 1010 10 16.0934 0 0
1:55 pm 13:55 Sunny 82 28 62 16.7 50 50 S 16 26 29.83 1010 10 16.0934 0 0
2:15 pm 14:15 Sunny 83 28.1 62 16.6 50 50 SSE 17 28 29.83 1010 10 16.0934 0 0
2:35 pm 14:35 Sunny 83 28.6 62 16.5 48 48 S 14 22 29.8 1009 10 16.0934 0 0
2:55 pm 14:55 Sunny 85 29.2 62 16.6 47 47 SSE 15 24 29.8 1009 10 16.0934 0 0
3:15 pm 15:15 Sunny 85 29.4 62 16.8 47 47 S 14 22 29.8 1009 10 16.0934 0 0
3:35 pm 15:35 Sunny 85 29.5 61 16.2 45 45 S 15 24 29.77 1008 10 16.0934 0 0
3:55 pm 15:55 Sunny 85 29.5 62 16.6 46 46 S 17 28 29.77 1008 10 16.0934 0 0
4:15 pm 16:15 Sunny 86 30.1 62 16.8 45 45 S 16 26 29.77 1008 10 16.0934 0 0
4:35 pm 16:35 Sunny 87 30.4 62 16.7 44 44 SSE 16 26 29.74 1007 10 16.0934 0 0
4:55 pm 16:55 Sunny 87 30.4 62 16.9 44 44 SSE 14 22 29.74 1007 10 16.0934 0 0
5:15 pm 17:15 Sunny 87 30.5 62 16.8 44 44 S 14 22 29.74 1007 10 16.0934 0 0
5:35 pm 17:35 Sunny 86 30.2 62 16.7 44 44 S 13 20 29.74 1007 10 16.0934 0 0
5:55 pm 17:55 Sunny 87 30.3 61 15.9 42 42 SSE 12 19 29.74 1007 10 16.0934 0 0
6:15 pm 18:15 Sunny 86 30.2 62 16.5 44 44 SSE 14 22 29.74 1007 10 16.0934 0 0
6:35 pm 18:35 Sunny 86 30 61 16 43 43 SSE 14 22 29.71 1006 10 16.0934 0 0
6:55 pm 18:55 Sunny 85 29.7 62 16.7 46 46 SSE 12 19 29.71 1006 10 16.0934 0 0
7:15 pm 19:15 Sunny 85 29.5 62 16.7 46 46 SSE 10 17 29.71 1006 10 16.0934 0 0
7:35 pm 19:35 Sunny 84 28.9 62 16.9 48 48 SSE 10 17 29.74 1007 10 16.0934 0 0
7:55 pm 19:55 Sunny 83 28.4 63 17.2 51 51 SSE 10 17 29.74 1007 10 16.0934 0 0
8:15 pm 20:15 Sunny 82 27.6 63 17.4 54 54 SSE 10 17 29.74 1007 10 16.0934 0 0
8:35 pm 20:35 Sunny 80 26.6 64 18 59 59 SSE 10 17 29.74 1007 10 16.0934 0 0
8:55 pm 20:55 Sunny 79 26 64 17.6 60 60 SSE 9 15 29.74 1007 10 16.0934 0 0
9:15 pm 21:15 Clear 77 25.2 64 17.7 63 63 SSE 9 15 29.77 1008 10 16.0934 0 0
9:35 pm 21:35 Clear 76 24.6 64 17.7 66 66 SSE 9 15 29.77 1008 10 16.0934 0 0
9:55 pm 21:55 Clear 75 23.7 64 18 71 71 SSE 9 15 29.77 1008 10 16.0934 0 0
10:15 pm 22:15 Clear 73 23 64 18 74 74 SE 9 15 29.77 1008 10 16.0934 0 0
10:35 pm 22:35 Clear 73 22.5 64 18 76 76 SE 8 13 29.8 1009 10 16.0934 0 0
10:55 pm 22:55 Clear 73 22.5 64 17.8 75 75 SSE 9 15 29.8 1009 10 16.0934 0 0
11:15 pm 23:15 Clear 73 22.8 64 17.5 72 72 SSE 9 15 29.8 1009 10 16.0934 0 0
11:35 pm 23:35 Clear 73 23 63 17.2 70 70 SSE 10 17 29.8 1009 10 16.0934 0 0
11:55 pm 23:55 Clear 73 23 63 17 69 69 SSE 10 17 29.8 1009 10 16.0934 0 0

Powered by AerisWeather